TimeMST,TemperatureF,Dew PointF,Humidity,Sea Level PressureIn,VisibilityMPH,Wind Direction,Wind SpeedMPH,Gust SpeedMPH,PrecipitationIn,Events,Conditions,WindDirDegrees,DateUTC
12:53 AM,19.9,17.1,89,29.60,10.0,WSW,9.2,-,N/A,,Clear,250,2013-11-16 07:53:00
1:53 AM,19.0,17.1,92,29.61,10.0,West,5.8,-,N/A,,Clear,260,2013-11-16 08:53:00
2:53 AM,15.1,12.0,88,29.65,10.0,Calm,Calm,-,N/A,,Clear,0,2013-11-16 09:53:00
3:53 AM,19.0,15.1,85,29.62,10.0,Variable,3.5,-,N/A,,Clear,0,2013-11-16 10:53:00
4:53 AM,18.0,14.0,84,29.62,10.0,WNW,4.6,-,N/A,,Clear,290,2013-11-16 11:53:00
5:53 AM,35.1,21.0,57,29.56,10.0,SSW,5.8,-,N/A,,Partly Cloudy,210,2013-11-16 12:53:00
6:53 AM,34.0,21.0,59,29.59,10.0,West,4.6,-,N/A,,Overcast,270,2013-11-16 13:53:00
7:53 AM,36.0,21.0,55,29.60,10.0,SW,12.7,-,N/A,,Overcast,220,2013-11-16 14:53:00
8:53 AM,37.9,19.9,48,29.60,10.0,SW,25.3,34.5,N/A,,Overcast,220,2013-11-16 15:53:00
9:53 AM,39.0,19.0,45,29.60,10.0,WSW,27.6,36.8,N/A,,Overcast,240,2013-11-16 16:53:00
10:53 AM,39.9,19.0,43,29.62,10.0,WSW,28.8,38.0,N/A,,Overcast,250,2013-11-16 17:53:00
11:53 AM,41.0,19.0,41,29.60,10.0,WSW,29.9,40.3,N/A,,Overcast,250,2013-11-16 18:53:00
12:53 PM,41.0,19.9,43,29.59,10.0,WSW,27.6,38.0,N/A,,Overcast,240,2013-11-16 19:53:00
1:53 PM,39.9,19.9,45,29.60,10.0,WSW,19.6,28.8,0.00,,Overcast,250,2013-11-16 20:53:00
2:53 PM,39.0,21.0,49,29.64,10.0,WSW,21.9,32.2,0.00,,Overcast,240,2013-11-16 21:53:00
3:53 PM,39.0,21.9,50,29.63,10.0,WSW,24.2,32.2,N/A,,Overcast,240,2013-11-16 22:53:00
4:53 PM,37.9,21.9,53,29.63,10.0,WSW,24.2,35.7,N/A,,Mostly Cloudy,240,2013-11-16 23:53:00
5:53 PM,37.0,25.0,62,29.59,10.0,SW,20.7,31.1,N/A,,Mostly Cloudy,230,2013-11-17 00:53:00
6:53 PM,36.0,26.1,67,29.62,10.0,WSW,18.4,-,N/A,,Scattered Clouds,240,2013-11-17 01:53:00
7:53 PM,35.1,26.1,70,29.64,10.0,WSW,15.0,23.0,N/A,,Clear,240,2013-11-17 02:53:00
8:53 PM,34.0,26.1,73,29.67,10.0,WSW,11.5,-,N/A,,Clear,240,2013-11-17 03:53:00
9:53 PM,33.1,26.1,75,29.69,10.0,West,8.1,-,N/A,,Partly Cloudy,270,2013-11-17 04:53:00
10:53 PM,30.0,24.1,79,29.72,10.0,Variable,4.6,-,N/A,,Partly Cloudy,0,2013-11-17 05:53:00
11:53 PM,32.0,25.0,75,29.72,10.0,WNW,3.5,-,N/A,,Clear,300,2013-11-17 06:53:00